Flag for Guadeloupe Weather past 2 weeks in Pointe-à-Pitre, Guadeloupe

84 °F

Partly sunny.

Feels Like: 90 °F
Forecast: 74 / 85 °F
Wind: 16 mph from Southeast

Location: Le Raizet - Guadeloupe

Current Time: Nov 28, 2015 at 2:26:00 PM

Latest Report: Nov 28, 2015 at 2:00 PM

Visibility: N/A

Pressure: 29.86 "Hg

Humidity: 66%

Dew point: 72 °F

Location of Pointe-à-PitreLocation

Historic Weather in Pointe-à-Pitre — Graph


Pointe-à-Pitre temperature yesterday

Maximum temperature yesterday: 86 °F (at 10:00 AM)
Minimum temperature yesterday: 73 °F (at 2:30 AM)
Average temperature yesterday: 80 °F

Past Weeks' High & Low Weather Summary

High88 °F (Nov 14, 11:30 AM)100% (Nov 14, 5:30 AM)30.04 "Hg (Nov 14, 5:30 AM)
Low68 °F (Nov 21, 4:00 AM)51% (Nov 21, 10:30 AM)29.80 "Hg (Nov 20, 3:30 AM)
Average79 °F81%29.92 "Hg
* Reported Nov 13 1:00 PM — Nov 28 1:00 PM, Pointe-à-Pitre, Weather by CustomWeather, © 2015

Note: Actual official high and low records may vary slightly from our data, if they occured in-between our weather recording intervals... More about our weather records


Pointe-à-Pitre weather history for previous 24 hours

Time TempWeatherWind HumidityBarometerVisibility
1:00 PM
Sat, Nov 28
86 °FPartly sunny.20 mph66%29.89 "HgN/A
12:30 PM86 °FScattered clouds.17 mph66%29.89 "HgN/A
12:00 PM86 °FBroken clouds.17 mph62%29.92 "HgN/A
11:30 AM86 °FPartly sunny.17 mph66%29.92 "HgN/A
11:00 AM84 °FPartly sunny.16 mph66%29.92 "HgN/A
10:30 AM84 °FBroken clouds.15 mph74%29.95 "HgN/A
10:00 AM84 °FPartly sunny.20 mph70%29.95 "HgN/A
9:30 AM84 °FBroken clouds.12 mph74%29.95 "HgN/A
9:00 AM84 °FBroken clouds.14 mph70%29.95 "HgN/A
8:30 AM82 °FPassing clouds.12 mph79%29.95 "HgN/A
8:00 AM81 °FBroken clouds.10 mph89%29.92 "HgN/A
7:30 AM81 °FScattered clouds.9 mph84%29.92 "HgN/A
7:00 AM79 °FScattered clouds.9 mph84%29.89 "HgN/A
6:30 AM75 °FPassing clouds.5 mph94%29.89 "HgN/A
6:00 AM75 °FPassing clouds.5 mph94%29.89 "HgN/A
5:30 AM77 °FRain. Partly cloudy.7 mph83%29.89 "HgN/A
5:00 AM77 °FPassing clouds.3 mph89%29.89 "HgN/A
4:30 AM77 °FClear.3 mph89%29.86 "HgN/A
4:00 AM77 °FPassing clouds.5 mph89%29.86 "HgN/A
3:30 AM79 °FPartly cloudy.7 mph84%29.86 "HgN/A
3:00 AM77 °FPassing clouds.7 mph89%29.86 "HgN/A
2:30 AM77 °FPassing clouds.5 mph89%29.89 "HgN/A
2:00 AM77 °FPassing clouds.3 mph89%29.89 "HgN/A
1:30 AM77 °FPartly cloudy.9 mph89%29.89 "HgN/A
1:00 AM79 °FPassing clouds.7 mph89%29.92 "HgN/A
12:30 AM79 °FOvercast.5 mph89%29.92 "HgN/A
12:00 AM77 °FPassing clouds.3 mph94%29.92 "HgN/A
11:30 PM
Fri, Nov 27
79 °FPartly cloudy.9 mph89%29.92 "HgN/A
11:00 PM77 °FPassing clouds.6 mph94%29.92 "HgN/A
10:30 PM77 °FMostly cloudy.5 mph94%29.95 "HgN/A
10:00 PM77 °FHeavy rain. Fog.14 mph94%29.95 "Hg3 mi
9:30 PM79 °FPartly cloudy.6 mph89%29.92 "HgN/A
8:00 PM79 °FPassing clouds.8 mph89%29.92 "HgN/A
7:00 PM79 °FLight rain. Partly cloudy.12 mph89%29.89 "HgN/A
6:30 PM79 °FClear.9 mph89%29.89 "HgN/A
6:00 PM79 °FPassing clouds.9 mph89%29.89 "HgN/A
5:30 PM79 °FClear.7 mph89%29.89 "HgN/A
5:00 PM81 °FClear.9 mph84%29.89 "HgN/A
4:30 PM81 °FPassing clouds.8 mph84%29.89 "HgN/A
4:00 PM81 °FBroken clouds.10 mph89%29.89 "HgN/A
3:30 PM81 °FLight rain. Partly sunny.9 mph84%29.89 "HgN/A
3:00 PM82 °FPartly sunny.15 mph79%29.89 "HgN/A
2:30 PM82 °FPartly sunny.12 mph74%29.89 "HgN/A
2:00 PM84 °FPartly sunny.13 mph74%29.89 "HgN/A
Weather by CustomWeather, © 2015

See weather overviewHow to use our weather pages